Wind_Speed
43 43 43 42 42 42 43 44 44 45 45 44 44 43 42 42 41 40 40 38 38 38 38 37 37 38 37 37 37 37 38 38 38 37 37 37 37 37 36 36 36 37 38
42 42 43 43 42 42 43 43 43 45 45 45 45 44 43 43 42 41 40 40 39 39 38 38 38 38 39 39 38 38 38 39 39 39 39 39 39 39 39 39 39 39 40
41 41 41 42 42 42 43 42 43 44 45 45 45 44 43 43 43 43 41 40 40 40 39 39 40 40 39 39 39 39 38 39 40 40 40 40 40 41 40 41 41 41 41
40 40 40 41 41 42 42 42 42 43 44 45 45 44 44 43 43 43 42 41 40 41 40 41 40 41 40 40 40 40 40 40 41 41 41 42 42 42 42 42 42 42 43
38 38 38 40 41 41 42 42 42 42 43 44 44 44 44 43 43 43 42 41 40 41 41 41 41 41 41 41 41 41 41 42 42 42 43 43 44 44 44 43 44 44 44
38 37 37 38 39 40 42 43 42 42 42 42 43 43 44 44 44 43 42 41 41 41 42 42 41 41 41 40 40 40 41 42 42 43 44 45 45 45 45 45 44 45 45
36 36 36 35 37 40 41 41 42 42 40 40 41 43 43 44 44 44 44 42 41 42 42 43 41 41 40 40 40 41 42 43 43 44 45 46 47 47 46 47 46 46 46
35 35 34 35 36 38 40 40 40 40 40 40 39 41 42 43 44 44 44 43 42 43 43 42 41 41 40 40 40 42 43 43 43 44 45 46 47 48 47 47 46 46 46
34 33 33 33 35 37 38 40 40 39 39 38 39 39 40 42 43 44 44 43 43 42 43 42 42 42 41 41 41 41 42 43 44 45 46 46 47 48 48 47 46 46 45
30 30 31 32 32 35 37 38 39 38 38 38 38 38 39 40 41 42 43 43 43 42 43 43 43 42 41 42 43 43 43 44 44 45 44 45 47 47 47 47 46 46 46
27 28 30 31 32 34 36 37 38 38 37 37 38 38 39 39 39 40 42 42 43 43 44 44 44 44 44 44 44 43 43 43 44 45 46 46 48 47 46 45 46 47 47
26 27 28 30 32 34 36 37 37 37 37 37 38 39 39 39 39 39 40 42 43 43 43 44 44 44 44 45 45 45 44 44 45 46 46 46 46 45 44 45 46 47 48
25 26 28 30 31 33 36 36 37 37 37 37 38 38 38 38 38 38 39 41 42 43 44 45 45 45 44 44 44 45 45 45 45 46 46 45 45 45 45 46 46 47 47
25 27 28 30 31 33 34 35 36 36 37 37 38 38 37 38 39 40 40 40 41 41 41 43 44 44 45 45 45 45 44 44 44 45 45 45 45 45 45 45 45 46 46
25 26 28 29 30 32 34 35 35 36 37 38 38 39 40 39 39 39 40 40 40 40 41 41 42 43 43 43 44 43 43 43 43 43 43 43 43 43 43 43 44 44 45
24 25 26 28 30 32 34 34 35 36 36 38 39 38 38 39 40 39 39 39 39 39 40 41 42 42 42 42 43 42 42 42 41 40 41 41 41 41 42 43 43 43 44
24 25 26 28 29 31 32 33 34 36 36 36 37 37 38 39 39 39 39 39 39 39 39 40 41 40 40 41 41 40 40 39 39 39 39 39 38 39 40 41 42 42 42
24 26 27 27 28 29 30 31 32 34 36 37 37 37 37 38 39 39 39 38 38 37 37 38 38 39 39 39 39 40 39 38 38 38 39 39 38 38 39 39 40 40 40
24 25 26 27 27 28 29 30 32 33 35 36 37 36 36 36 37 38 38 38 37 37 37 37 37 38 38 38 38 38 37 37 37 37 38 38 38 38 38 38 38 38 38
24 25 25 26 26 27 28 30 30 31 33 33 34 35 35 36 37 37 37 37 37 37 37 36 35 35 35 35 36 37 36 37 37 37 36 37 36 36 37 37 37 37 36
24 25 25 26 27 27 27 28 29 30 30 31 33 34 34 35 36 37 37 36 37 37 36 35 35 35 35 34 34 35 36 36 36 36 36 36 36 37 37 36 36 36 36
23 24 24 25 27 28 28 28 29 29 29 29 30 32 33 34 35 36 36 36 36 36 36 36 35 34 33 33 32 32 33 34 34 35 36 37 37 37 36 35 35 35 35
23 23 24 25 26 28 29 30 30 29 28 29 30 31 32 33 34 35 35 35 34 34 35 34 33 33 32 32 32 31 32 32 33 34 35 36 36 35 34 35 36 36 35
23 24 24 25 26 27 28 29 29 29 30 30 30 31 32 32 33 33 34 33 34 34 33 33 32 32 32 32 32 31 31 32 33 34 34 35 35 34 34 34 35 35 34
24 24 25 25 26 26 27 28 29 29 30 30 30 30 31 32 33 33 34 35 35 34 33 32 31 32 32 32 32 32 31 31 32 33 33 33 34 33 33 32 33 33 32
25 25 25 26 27 27 27 27 28 27 28 29 29 29 30 31 32 32 33 33 33 33 32 33 32 31 31 31 31 32 32 32 31 31 31 30 31 31 31 31 31 30 30
Wind_Direction
244 244 244 244 245 245 245 244 244 243 242 242 242 243 243 245 246 248 248 249 250 251 252 254 256 257 256 257 259 260 261 262 264 265 267 269 272 275 277 279 281 283 285
243 244 244 244 245 244 244 244 243 243 242 241 241 242 243 244 245 248 248 248 250 252 254 255 257 257 259 259 259 260 261 263 264 266 267 269 271 274 276 277 279 282 284
242 243 244 244 245 244 243 243 244 244 242 239 239 240 241 243 245 247 249 249 251 253 254 255 257 258 260 261 261 261 262 264 265 266 268 269 272 274 275 277 278 280 283
243 243 243 244 244 243 243 242 243 243 241 238 238 240 241 241 244 246 249 250 252 253 255 257 258 259 260 262 263 264 263 264 266 266 268 271 273 274 276 278 279 281 283
242 243 243 243 242 241 241 241 243 242 240 237 238 240 241 242 244 246 249 252 254 255 256 257 258 260 261 262 263 264 265 265 266 267 268 271 273 276 277 279 281 282 284
240 241 242 242 242 240 240 241 241 240 239 237 237 239 241 242 244 246 249 253 254 254 255 256 257 259 261 262 264 264 265 266 267 268 269 271 274 277 278 280 281 282 284
241 240 241 241 240 239 239 239 240 239 238 239 239 240 241 243 245 246 249 251 253 254 255 255 256 257 260 262 264 265 266 267 267 268 270 271 273 275 278 279 281 283 284
242 241 241 242 240 238 238 238 238 237 238 240 240 240 242 243 245 247 248 251 253 254 254 254 255 257 260 261 264 267 269 270 270 270 271 272 273 275 277 280 282 283 284
243 242 241 242 240 238 237 237 236 236 238 240 240 242 243 245 246 247 248 250 252 253 254 254 255 257 260 262 265 269 270 271 272 271 272 273 274 276 277 279 282 283 283
241 241 241 241 239 236 236 235 235 236 239 240 242 244 245 246 247 248 249 251 252 253 254 255 255 258 261 264 266 268 268 270 271 272 274 275 276 277 279 280 281 282 283
241 239 238 238 238 236 234 233 236 239 240 241 243 246 246 247 248 251 251 251 252 253 254 255 256 258 261 263 265 266 268 270 272 272 272 274 276 277 279 279 280 281 282
242 239 240 240 239 237 235 236 239 240 241 243 245 247 248 248 250 252 253 253 254 254 254 255 258 259 261 263 265 266 267 270 272 272 271 273 275 276 278 279 281 282 282
245 241 240 241 241 239 237 238 239 239 242 245 248 250 250 250 251 252 254 256 256 256 256 257 259 260 262 263 265 266 267 269 271 271 271 272 273 275 277 278 280 281 283
249 246 244 245 244 242 240 241 241 242 245 247 247 249 251 252 254 254 255 256 256 258 258 259 260 261 262 263 263 265 266 268 268 269 270 271 273 275 276 279 280 281 284
250 251 249 248 248 245 243 244 245 246 248 249 250 250 252 254 255 255 255 256 258 258 259 260 261 262 262 262 263 265 266 267 269 269 270 271 273 276 277 279 280 282 283
255 254 251 249 248 246 245 245 247 249 251 251 251 252 252 254 256 258 257 258 260 261 261 261 263 264 263 262 263 265 267 268 268 269 271 272 274 275 277 279 281 282 285
256 256 256 252 249 248 249 248 249 252 252 251 252 252 254 256 257 258 259 259 261 262 262 261 262 262 262 264 265 265 266 267 269 269 269 271 273 276 278 279 280 282 285
259 258 256 254 252 250 250 251 252 252 252 252 253 254 254 255 257 258 260 262 261 260 262 263 263 263 263 264 263 264 264 266 268 269 269 270 272 275 278 279 280 282 284
262 259 258 257 256 254 253 253 254 255 255 255 254 254 255 256 258 259 260 262 262 262 263 266 266 265 266 266 263 262 263 264 266 269 272 272 273 274 275 277 281 283 285
262 262 261 260 259 257 255 255 256 257 258 257 256 256 257 258 259 262 263 263 262 263 264 265 267 268 268 267 265 263 263 264 266 269 272 273 272 273 275 278 281 283 285
266 266 264 263 261 260 260 261 261 261 261 260 258 259 258 259 259 261 262 262 261 262 263 264 267 267 267 267 265 264 263 264 266 267 270 272 273 274 276 279 282 284 285
269 268 266 265 264 264 264 264 265 264 263 263 262 261 260 261 261 261 261 262 262 262 262 264 266 265 265 266 265 265 265 264 266 268 270 272 274 275 276 278 281 283 284
269 270 269 268 268 268 267 267 266 264 263 265 266 266 265 264 263 262 262 263 262 262 262 261 263 263 263 263 264 265 266 266 267 270 271 273 274 276 277 279 281 282 284
273 272 271 271 271 270 270 268 266 264 265 267 268 268 268 267 265 263 262 261 262 263 262 261 261 261 262 261 263 265 267 267 269 271 272 273 273 275 277 279 281 282 284
275 274 273 272 271 271 270 269 268 268 268 268 269 269 268 267 266 265 262 261 261 262 262 260 259 259 261 261 263 266 268 269 270 270 272 273 272 273 276 278 280 283 284
275 274 272 271 271 272 271 269 267 267 268 269 268 268 268 266 266 265 263 262 261 260 260 258 257 256 258 260 264 266 268 270 272 272 273 274 273 273 274 277 280 283 284
Height
5694 5697 5700 5704 5707 5710 5713 5716 5720 5724 5727 5731 5736 5739 5743 5746 5749 5751 5753 5755 5757 5759 5761 5762 5764 5765 5766 5768 5769 5770 5771 5772 5772 5773 5773 5774 5774 5773 5773 5772 5771 5769 5767
5683 5686 5689 5692 5695 5698 5701 5705 5708 5712 5715 5720 5725 5729 5733 5736 5739 5742 5744 5746 5748 5750 5752 5754 5755 5756 5758 5759 5760 5761 5762 5762 5763 5764 5764 5765 5766 5765 5764 5763 5762 5760 5758
5672 5675 5678 5681 5684 5687 5690 5694 5697 5700 5704 5708 5713 5718 5722 5726 5729 5732 5735 5737 5739 5741 5743 5745 5746 5747 5748 5750 5751 5752 5753 5754 5754 5754 5755 5756 5756 5756 5756 5754 5752 5750 5748
5661 5664 5667 5670 5673 5676 5679 5683 5686 5689 5693 5697 5702 5707 5712 5716 5720 5723 5725 5727 5729 5732 5734 5735 5736 5738 5739 5740 5742 5743 5744 5744 5744 5745 5745 5746 5746 5746 5746 5745 5742 5740 5738
5650 5653 5656 5659 5662 5665 5668 5672 5675 5678 5682 5687 5692 5697 5702 5706 5709 5712 5715 5718 5720 5722 5724 5726 5727 5728 5729 5731 5732 5733 5733 5734 5734 5735 5735 5735 5735 5734 5734 5734 5733 5730 5728
5640 5642 5645 5648 5651 5653 5657 5661 5664 5668 5672 5677 5682 5687 5692 5695 5699 5702 5705 5708 5710 5712 5714 5715 5717 5718 5719 5721 5722 5722 5723 5723 5724 5724 5725 5725 5724 5724 5723 5723 5722 5720 5718
5629 5632 5635 5638 5640 5643 5647 5651 5654 5658 5663 5667 5672 5677 5682 5685 5689 5693 5696 5698 5700 5702 5704 5705 5707 5708 5710 5711 5712 5712 5712 5713 5713 5714 5714 5714 5714 5713 5712 5711 5710 5709 5708
5619 5622 5625 5628 5631 5634 5638 5641 5645 5650 5654 5658 5663 5667 5672 5675 5679 5683 5686 5688 5690 5692 5694 5695 5697 5699 5700 5701 5702 5702 5702 5702 5703 5703 5703 5703 5702 5702 5701 5700 5698 5697 5696
5611 5614 5617 5619 5622 5626 5629 5633 5637 5642 5646 5650 5655 5659 5662 5666 5669 5673 5676 5678 5680 5682 5684 5685 5687 5689 5690 5691 5692 5692 5691 5692 5692 5692 5692 5691 5691 5690 5689 5688 5686 5685 5683
5603 5606 5609 5612 5614 5618 5622 5626 5630 5635 5639 5643 5647 5650 5654 5656 5660 5663 5665 5668 5670 5672 5674 5675 5677 5679 5680 5681 5681 5682 5682 5682 5682 5682 5681 5681 5680 5679 5678 5676 5674 5672 5671
5597 5599 5602 5604 5607 5610 5614 5618 5623 5627 5631 5635 5639 5642 5645 5648 5650 5653 5656 5658 5660 5661 5663 5665 5666 5668 5669 5670 5671 5671 5671 5671 5671 5671 5670 5670 5669 5668 5666 5664 5663 5661 5659
5591 5593 5595 5598 5601 5604 5607 5611 5616 5620 5624 5627 5630 5634 5636 5639 5641 5644 5646 5647 5649 5651 5652 5654 5655 5657 5658 5659 5659 5660 5660 5660 5660 5659 5659 5658 5657 5656 5654 5653 5651 5649 5647
5586 5587 5589 5592 5594 5597 5600 5604 5608 5612 5616 5619 5622 5624 5627 5629 5632 5634 5636 5637 5639 5640 5641 5643 5644 5646 5647 5647 5648 5649 5649 5649 5648 5648 5647 5647 5645 5644 5643 5641 5639 5637 5635
5580 5581 5583 5585 5587 5590 5593 5596 5600 5603 5607 5610 5612 5614 5617 5620 5622 5624 5625 5626 5628 5629 5630 5632 5633 5634 5635 5636 5637 5637 5637 5637 5636 5636 5636 5635 5634 5633 5631 5629 5627 5624 5622
5573 5574 5576 5578 5580 5582 5585 5588 5591 5595 5598 5600 5603 5605 5608 5610 5612 5614 5615 5616 5617 5618 5619 5621 5622 5622 5623 5624 5625 5625 5625 5625 5625 5624 5624 5623 5622 5621 5618 5616 5614 5612 5609
5566 5567 5568 5570 5572 5574 5577 5580 5583 5586 5588 5591 5593 5595 5598 5600 5602 5604 5605 5606 5607 5607 5608 5609 5610 5611 5612 5613 5613 5614 5614 5614 5613 5613 5612 5612 5610 5608 5606 5604 5602 5599 5597
5560 5561 5561 5562 5564 5567 5569 5572 5574 5577 5579 5581 5583 5586 5588 5590 5592 5593 5594 5596 5596 5597 5598 5598 5599 5600 5601 5602 5602 5602 5602 5602 5602 5602 5602 5601 5599 5597 5596 5594 5591 5588 5585
5554 5554 5554 5556 5557 5559 5561 5563 5565 5567 5569 5572 5574 5576 5578 5580 5582 5583 5584 5585 5586 5587 5588 5588 5589 5589 5590 5591 5591 5592 5592 5592 5592 5592 5591 5590 5589 5587 5586 5583 5581 5578 5575
5547 5547 5548 5549 5551 5552 5553 5555 5557 5558 5560 5561 5563 5566 5568 5570 5571 5573 5574 5575 5576 5577 5577 5578 5578 5579 5579 5580 5580 5581 5581 5582 5583 5582 5581 5580 5579 5577 5576 5573 5571 5569 5565
5541 5541 5542 5543 5544 5545 5546 5547 5548 5549 5551 5552 5554 5556 5558 5560 5561 5563 5564 5565 5566 5566 5567 5568 5568 5569 5569 5569 5569 5570 5571 5572 5573 5573 5572 5571 5568 5567 5565 5563 5561 5559 5556
5534 5534 5535 5536 5537 5537 5538 5539 5540 5541 5542 5543 5544 5546 5547 5549 5550 5552 5553 5554 5555 5555 5556 5557 5558 5558 5559 5559 5560 5560 5561 5562 5562 5562 5562 5561 5559 5557 5555 5554 5552 5550 5547
5528 5528 5528 5529 5529 5530 5530 5531 5532 5532 5533 5534 5535 5536 5537 5538 5540 5541 5542 5543 5544 5545 5546 5547 5548 5548 5549 5549 5550 5550 5551 5551 5552 5552 5552 5550 5549 5547 5545 5544 5543 5540 5538
5521 5521 5521 5522 5522 5522 5522 5523 5523 5523 5524 5525 5526 5526 5527 5528 5529 5530 5531 5532 5534 5535 5536 5536 5537 5538 5539 5540 5540 5541 5541 5542 5542 5542 5541 5540 5539 5538 5536 5535 5533 5531 5529
5514 5514 5514 5514 5514 5513 5514 5514 5514 5515 5515 5516 5516 5517 5517 5518 5519 5519 5521 5522 5523 5524 5525 5526 5527 5528 5530 5530 5531 5532 5532 5532 5532 5532 5531 5531 5529 5528 5527 5526 5524 5522 5520
5507 5507 5506 5506 5506 5506 5506 5505 5506 5506 5506 5507 5507 5507 5507 5508 5509 5509 5510 5511 5513 5514 5515 5516 5517 5519 5520 5521 5522 5522 5523 5523 5523 5523 5522 5521 5520 5519 5518 5517 5515 5513 5512
5500 5499 5498 5498 5498 5498 5498 5497 5497 5497 5497 5497 5498 5498 5498 5498 5499 5499 5500 5500 5501 5502 5504 5505 5507 5509 5510 5511 5512 5513 5513 5513 5513 5513 5512 5511 5510 5510 5509 5509 5507 5506 5504